{"data":{"norad_id":64725,"intl_designator":"2025-144B","name":"STARLINK-34562","alt_names":[],"object_type":"PAYLOAD","status":"ACTIVE","operator":null,"country":"US","launch_date":"2025-07-02","launch_site_code":"AFETR","launch_vehicle":null,"mission":null,"orbit_class":"UNKNOWN","rcs_meters":null,"size_class":null,"mass_kg":null,"dimensions":null,"purposes":["comms"],"wikipedia_slug":null,"has_3d_model":false,"image_url":null,"decayed_at":null,"tle_current":{"epoch":"2026-05-25T03:16:13.428192Z","epoch_age_seconds":57221,"freshness":"FRESH","line1":"1 64725U 25144B   26145.13626653  .00011290  00000+0  39274-3 0  9990","line2":"2 64725  53.1578 186.1404 0001198  88.3260 271.7878 15.30200068 51398","mean_motion":15.30200068,"eccentricity":0.0001198,"inclination_deg":53.1578,"raan_deg":186.1404,"arg_perigee_deg":88.326,"mean_anomaly_deg":271.7878,"bstar":0.00039274,"rev_number":5139,"period_min":94.105341524531,"perigee_km":474.39383483,"apogee_km":476.03589793718,"semimajor_km":6853.3518663836,"source":"CELESTRAK","updated_at":"2026-05-25T13:38:20.519074Z"}}}